Showing default

KUIPER-00087, 64833

Orbit data source: Space-Track

KUIPER-00087, 64833 is a payload satellite owned by Kuiper Systems (US) in LEO that was launched on Wed, 16 Jul 2025 UTC via an FALCON 9 launch vehicle from the Air Force Eastern Test Range (AFETR). Payload-class satellites include a variety of spacecraft equipped with specific instruments for various scientific and technological missions. These include communications satellites like Starlink; space stations such as the ISS; scientific satellites like the Hubble; Earth observation satellites from companies like Planet Labs, Umbra, and HawkEye 360; GPS; miniature CubeSats for education and research; and military/defense satellites.

Loading next visibility...
Identifier
64833, 2025-151T
Orbit
LEO
Country
Flag of USUS
Related business
Manufacturer
Kuiper Systems
Mission
Operational Commercial Communications
Bus & Motor
KUIPER, Unknown motor
Mass
~490 kg wet, ~490 kg dry
Launch date (UTC)
2025-07-16 (11 months ago)
Launch vehicle
FALCON 9
Launch site
Air Force Eastern Test Range (AFETR)
Object type
Payload
Rocket body
Debris
Shape & HBR
Box + 2 Pan, 3.4 m
Radar Cross Section
2.326 m², Large (>1 m²)

Expand to show TLE details & history
Last TLE update: 1 day ago

TLE from 1 day ago
0 KUIPER-00087
1 64833U 25151T   26168.28684770 -.00000326  00000-0 -13821-4 0  9995
2 64833  51.8993 200.1579 0000429  87.5229 272.5783 14.79929772 50324
Epoch: 2026-06-17T06:53Z
TLE epoch observation values (Epoch: 2026-06-17T06:53:03.641Z)
Latitude
0.00003°
Longitude
-168.65394°
Altitude
630.279 km
Speed
7.545 km/s
True Right ascension
13h 20m 37s
True Declination
0° 00' 00"
Sunlit
Object was in daylight at epoch
Visualization orbit readout
Latitude
Unknown
Longitude
Unknown
Altitude
Unknown
Speed
Unknown
Apparent Right ascension
Unknown
Apparent Declination
Unknown
Sunlit
N/A
Visualization observer readout
Local Sidereal Time
19:09:37
Azimuth
Unknown
Elevation
Unknown
Doppler factor
Unknown
Orbital elements
Apogee altitude
630.298 km
Perigee altitude
629.696 km
Semi-major axis
7,008.134 km
Eccentricity
0.00004
Inclination
51.8993°
RAAN
200.1579°
Arg. of periapsis
87.5229°
True anomaly
272.57339°
Mean anomaly
272.5783°
Eccentric anomaly
272.57584°
Mean motion
3.69947 °/min
Orbital period
97.31 mins
BSTAR
-0.000013821
Loading maneuver chart data...
Computing Atmospheric mass density...
Loading historical data...
Loading historical data...
Loading historical data...
Loading historical data...
Loading historical data...
Loading historical data...
Loading historical data...

Documentation

Showing up to 5 results
|